Regional Weather Roundup
Issued by NWS Sterling, VA

Home | Current Version | Previous Version | Graphics & Text | Print | Product List | Glossary On
Versions: 1 2 3 4 5 6 7 8 9 10 11 12 13 14 15 16 17 18 19 20 21 22 23 24 25 26 27 28 29 30 31 32 33 34 35 36 37 38 39 40 41 42 43 44 45 46 47 48 49 50
000
ASUS41 KLWX 230810
RWRLWX

REGIONAL WEATHER ROUNDUP
NATIONAL WEATHER SERVICE BALTIMORE MD/WASHINGTON DC
400 AM EDT TUE SEP 23 2014

Note: "FAIR" indicates few or no clouds below 12,000 feet
with no significant weather and/or obstructions to visibility.
 TC=TEMPERATURE CELSIUS

 * =Non NWS site. Station does not report precipitation (e.g. rain,
    snow, etc.), thunder, or fog.

DCZ001-MDZ009-015-VAZ040>042-051-053>054-230900-
WASHINGTON METRO

CITY           SKY/WX    TMP DP  RH WIND       PRES   REMARKS
WASHINGTON NAT PTCLDY    57  41  55 NW10      30.28R
DULLES         PTCLDY    49  41  74 N5        30.27R
ANDREWS AFB    PTCLDY    53  42  66 N12       30.25R
QUANTICO       PTCLDY    56  41  57 N10       30.27S
COLLEGE PARK*  PTCLDY    52  43  71 CALM      30.26R
LEESBURG*      CLEAR     46  45  93 CALM      30.28S
MANASSAS*      PTCLDY    48  45  87 N5        30.27S
GAITHERSBURG*  CLEAR     45  39  81 CALM      30.30R

$$

MDZ006>007-011-014-230900-
BALTIMORE METRO

CITY           SKY/WX    TMP DP  RH WIND       PRES   REMARKS
BWI AIRPORT    PTCLDY    50  44  80 W5        30.25R
MD SCIENCE CTR   N/A     57  41  55 MISG      30.26R
MARTIN STATE   CLEAR     52  45  76 CALM      30.26R
ANNAPOLIS      PTCLDY    57  47  69 MISG      30.26R
FORT MEADE*    CLEAR     45  43  93 W3        30.28R

$$

MDZ012-015-019>023-230900-
MARYLAND EASTERN SHORE

CITY           SKY/WX    TMP DP  RH WIND       PRES   REMARKS
OCEAN CITY     PTCLDY    52  45  77 NW6       30.22R
SALISBURY      PTCLDY    54  44  69 N7        30.23R
BAY BRIDGE AP*   N/A     57  43  58 N6        30.25R
CAMBRIDGE*     MOCLDY    57  45  62 NE5       30.24R
EASTON*        MOCLDY    55  47  74 CALM      30.28R

$$

MDZ017>025-230900-
SOUTHERN MARYLAND

CITY           SKY/WX    TMP DP  RH WIND       PRES   REMARKS
PATUXENT RIVER PTCLDY    57  44  62 N8        30.24R
ST INIGOES     PTCLDY    57  44  62 VRB3      30.23R
LEONARDTOWN*   PTCLDY    54  43  66 CALM      30.26R

$$

MDZ003>005-230900-
NORTH CENTRAL MARYLAND

CITY           SKY/WX    TMP DP  RH WIND       PRES   REMARKS
FREDERICK*     CLEAR     45  45 100 CALM      30.29R
HAGERSTOWN APT CLEAR     48  39  71 CALM      30.28R
WESTMINSTER*   CLEAR     48  43  81 CALM      30.25S

$$

MDZ501>502-230900-
WESTERN MARYLAND

CITY           SKY/WX    TMP DP  RH WIND       PRES   REMARKS
OAKLAND*       CLEAR     39 N/A N/A NW3       30.27S
CUMBERLAND*    CLEAR     41  37  87 SE3       30.33S

$$

VAZ025>031-230900-
SHENANDOAH VALLEY

CITY           SKY/WX    TMP DP  RH WIND       PRES   REMARKS
WINCHESTER*    CLEAR     46  41  81 NW3       30.28R
STAUNTON*      PTCLDY    45  41  86 NW3       30.27F

$$

WVZ021-048>050-054>055-230900-
EASTERN WEST VIRGINIA PANHANDLE

CITY           SKY/WX    TMP DP  RH WIND       PRES   REMARKS
MARTINSBURG    CLEAR     45  39  79 S3        30.28S
PETERSBURG*    CLEAR     40  38  94 CALM      30.31R FOG

$$

VAZ036>039-050-230900-
CENTRAL FOOTHILLS

CITY           SKY/WX    TMP DP  RH WIND       PRES   REMARKS
CHARLOTTESVILL PTCLDY    52  44  74 E3        30.24S
ORANGE*        PTCLDY    52  43  71 N7        30.26S

$$

VAZ055>057-230900-
NORTH AND CENTRAL PIEDMONT

CITY           SKY/WX    TMP DP  RH WIND       PRES   REMARKS
FREDERICKSBRG* PTCLDY    55  45  70 N3        30.25S
STAFFORD*      PTCLDY    50  44  79 CALM      30.30R

$$

NCZ024-NYZ072-PAZ021-071-VAZ022-071-230900-
OTHER REGIONAL OBSERVATIONS

CITY           SKY/WX    TMP DP  RH WIND       PRES   REMARKS
NEW YORK CITY  CLEAR     53  39  59 W5        30.24R
PHILADELPHIA   PTCLDY    52  41  66 NW3       30.24S
PITTSBURGH     CLEAR     42  39  89 CALM      30.29S
ROANOKE        MOCLDY    53  44  71 N8        30.27S
RICHMOND       MOCLDY    56  44  64 N5        30.25R
RALEIGH        CLOUDY    62  49  62 NE9       30.19R

$$

ANZ530>537-230900-
MARINE OBSERVATIONS

STATION/POSITION TIME  TEMP    WIND        PRES
                       AIR SEA DIR/SP/G
                 (UTC) (F)     (DEG/KT/KT) (MB)
THOMAS PT LIGHT  0800   58 72  330/ 12/ 14 1025.4R
BALT KEY BRIDGE  0800   57     330/ 11/ 12 1024.0S
COVE POINT       0800   60     350/ 16/ 18 1023.7R
LEWISETTA        0800   60 72  360/ 10/ 14 1023.4F
SOLOMONS ISLAND  0800      74                N/A
PINEY POINT      0800          360/ 13/ 15   N/A

$$



USA.gov is the U.S. government's official web portal to all federal, state and local government web resources and services.